Leonardtown, MD

7:32 PM EDT on June 26, 2017 (GMT -0400)
Leonardtown

Weather History for K2W6 - March, 2013

Change the Weather History Date:

Monday, March 4, 2013

  Actual Average (KNHK) Record (KNHK)
Temperature  
Mean Temperature 37 °F -  
Max Temperature 44 °F 51 °F 82 °F (1983)
Min Temperature 30 °F 33 °F 15 °F (2009)
Degree Days  
Heating Degree Days 28    
Moisture  
Dew Point 15 °F    
Average Humidity 43    
Maximum Humidity 60    
Minimum Humidity 31    
Precipitation  
Precipitation 0.00 in - - ()
Sea Level Pressure  
Sea Level Pressure 29.98 in    
Wind  
Wind Speed 8 mph (WNW)    
Max Wind Speed 22 mph    
Max Gust Speed 28 mph    
Visibility 10 miles    
Events      
Averages and records for this station are not official NWS values.
T = Trace of Precipitation, MM = Missing Value Source: NWS Daily Summary

Daily Weather History Graph

Daily Weather History Graph

Search for Another Location

Airport or City:

Trip Planner

Search our weather history database for the weather conditions in past years. The results will help you decide how hot, cold, wet, or windy it might be!

Date:

Astronomy

Mar. 04, 2013 Rise Set
Actual Time 6:33 AM EST 6:02 PM EST
Civil Twilight 6:07 AM EST 6:29 PM EST
Nautical Twilight 5:36 AM EST 6:59 PM EST
Astronomical Twilight 5:05 AM EST 7:30 PM EST
Moon 12:37 AM EST (3/4) 10:45 AM EST (3/4)
Length of Visible Light 12h 22m
Length of Day
11h 29m
Waning Gibbous, 52% of the Moon is Illuminated
Mar 4
Waning Gibbous
Mar 4
Last Quarter
Mar 11
New
Mar 19
First Quarter
Mar 27
Full

Hourly Weather History & Observations

Time (EST) Temp. Windchill Dew Point Humidity Pressure Visibility Wind Dir Wind Speed Gust Speed Precip Events Conditions
12:19 AM 32.0 °F 27.5 °F 14.0 °F 48% 29.93 in 10.0 mi WNW 4.6 mph - N/A   Clear
12:39 AM 32.0 °F 24.8 °F 14.0 °F 48% 29.93 in 10.0 mi WNW 8.1 mph - N/A   Clear
12:59 AM 32.0 °F 25.6 °F 14.0 °F 48% 29.93 in 10.0 mi WNW 6.9 mph - N/A   Clear
1:19 AM 32.0 °F 23.6 °F 15.8 °F 51% 29.93 in 10.0 mi WNW 10.4 mph - N/A   Clear
1:39 AM 30.2 °F 23.4 °F 15.8 °F 55% 29.93 in 10.0 mi WNW 6.9 mph 16.1 mph N/A   Clear
1:59 AM 30.2 °F 23.4 °F 15.8 °F 55% 29.93 in 10.0 mi WNW 6.9 mph - N/A   Clear
2:19 AM 30.2 °F 25.4 °F 15.8 °F 55% 29.93 in 10.0 mi WNW 4.6 mph - N/A   Clear
2:39 AM 30.2 °F 21.9 °F 15.8 °F 55% 29.93 in 10.0 mi WNW 9.2 mph - N/A   Clear
2:59 AM 30.2 °F 23.4 °F 15.8 °F 55% 29.93 in 10.0 mi WNW 6.9 mph - N/A   Clear
3:19 AM 30.2 °F 23.4 °F 15.8 °F 55% 29.93 in 10.0 mi West 6.9 mph - N/A   Clear
3:39 AM 30.2 °F 23.4 °F 15.8 °F 55% 29.94 in 10.0 mi West 6.9 mph - N/A   Clear
3:59 AM 30.2 °F 23.4 °F 15.8 °F 55% 29.94 in 10.0 mi WNW 6.9 mph - N/A   Clear
4:19 AM 30.2 °F 24.3 °F 15.8 °F 55% 29.94 in 10.0 mi WNW 5.8 mph - N/A   Clear
4:39 AM 30.2 °F 23.4 °F 15.8 °F 55% 29.94 in 10.0 mi WNW 6.9 mph - N/A   Clear
4:59 AM 30.2 °F 23.4 °F 15.8 °F 55% 29.95 in 10.0 mi WNW 6.9 mph - N/A   Clear
5:19 AM 30.2 °F 23.4 °F 15.8 °F 55% 29.95 in 10.0 mi WNW 6.9 mph - N/A   Clear
5:59 AM 30.2 °F 22.6 °F 15.8 °F 55% 29.96 in 10.0 mi WNW 8.1 mph - N/A   Clear
6:19 AM 30.2 °F 24.3 °F 15.8 °F 55% 29.97 in 10.0 mi WNW 5.8 mph - N/A   Clear
6:40 AM 30.2 °F 24.3 °F 15.8 °F 55% 29.98 in 10.0 mi West 5.8 mph - N/A   Clear
7:00 AM 30.2 °F 24.3 °F 17.6 °F 60% 29.99 in 10.0 mi West 5.8 mph - N/A   Clear
7:20 AM 30.2 °F 22.6 °F 15.8 °F 55% 29.99 in 10.0 mi WNW 8.1 mph - N/A   Clear
7:40 AM 30.2 °F 23.4 °F 15.8 °F 55% 30.00 in 10.0 mi WNW 6.9 mph - N/A   Clear
8:00 AM 32.0 °F 24.2 °F 14.0 °F 48% 30.00 in 10.0 mi WNW 9.2 mph 19.6 mph N/A   Clear
8:20 AM 32.0 °F 24.2 °F 14.0 °F 48% 30.00 in 10.0 mi West 9.2 mph 17.3 mph N/A   Clear
8:40 AM 32.0 °F 22.1 °F 14.0 °F 48% 30.01 in 10.0 mi West 13.8 mph - N/A   Clear
9:00 AM 32.0 °F 21.6 °F 14.0 °F 48% 30.01 in 10.0 mi WNW 15.0 mph 23.0 mph N/A   Clear
9:20 AM 32.0 °F 23.6 °F 14.0 °F 48% 30.01 in 10.0 mi WNW 10.4 mph 19.6 mph N/A   Clear
9:40 AM 33.8 °F 25.3 °F 14.0 °F 44% 30.01 in 10.0 mi WNW 11.5 mph 17.3 mph N/A   Clear
10:00 AM 33.8 °F 22.8 °F 14.0 °F 44% 30.01 in 10.0 mi West 18.4 mph 21.9 mph N/A   Clear
10:20 AM 33.8 °F 26.4 °F 12.2 °F 41% 30.01 in 10.0 mi West 9.2 mph 24.2 mph N/A   Clear
11:00 AM 35.6 °F 26.6 °F 14.0 °F 41% 30.00 in 10.0 mi West 13.8 mph 23.0 mph N/A   Clear
11:20 AM 35.6 °F 25.9 °F 14.0 °F 41% 30.00 in 10.0 mi West 16.1 mph 24.2 mph N/A   Clear
11:40 AM 37.4 °F 29.8 °F 14.0 °F 38% 29.99 in 10.0 mi WNW 11.5 mph 20.7 mph N/A   Clear
12:00 PM 37.4 °F 28.9 °F 14.0 °F 38% 29.99 in 10.0 mi WNW 13.8 mph 25.3 mph N/A   Clear
12:20 PM 37.4 °F 29.3 °F 14.0 °F 38% 29.99 in 10.0 mi WNW 12.7 mph 23.0 mph N/A   Clear
1:00 PM 39.2 °F 30.8 °F 14.0 °F 36% 29.97 in 10.0 mi West 15.0 mph 26.5 mph N/A   Clear
1:20 PM 41.0 °F 34.7 °F 14.0 °F 33% 29.96 in 10.0 mi WNW 10.4 mph 25.3 mph N/A   Clear
1:40 PM 41.0 °F 32.2 °F 15.8 °F 36% 29.95 in 10.0 mi West 18.4 mph 25.3 mph N/A   Clear
2:00 PM 41.0 °F 33.5 °F 15.8 °F 36% 29.95 in 10.0 mi West 13.8 mph 18.4 mph N/A   Clear
2:20 PM 41.0 °F 31.4 °F 15.8 °F 36% 29.95 in 10.0 mi West 21.9 mph 27.6 mph N/A   Clear
2:40 PM 42.8 °F 36.6 °F 15.8 °F 34% 29.95 in 10.0 mi WNW 11.5 mph 18.4 mph N/A   Clear
3:01 PM 42.8 °F 38.6 °F 15.8 °F 34% 29.95 in 10.0 mi West 6.9 mph 20.7 mph N/A   Clear
3:21 PM 42.8 °F 37.0 °F 15.8 °F 34% 29.94 in 10.0 mi NW 10.4 mph 19.6 mph N/A   Clear
3:41 PM 44.6 °F 38.1 °F 17.6 °F 34% 29.94 in 10.0 mi WNW 13.8 mph 21.9 mph N/A   Clear
4:01 PM 42.8 °F 36.6 °F 14.0 °F 31% 29.94 in 10.0 mi WNW 11.5 mph 23.0 mph N/A   Clear
4:21 PM 42.8 °F 35.8 °F 15.8 °F 34% 29.95 in 10.0 mi WNW 13.8 mph 18.4 mph N/A   Clear
4:41 PM 42.8 °F 37.5 °F 14.0 °F 31% 29.95 in 10.0 mi WNW 9.2 mph - N/A   Clear
5:01 PM 42.8 °F 38.0 °F 14.0 °F 31% 29.95 in 10.0 mi NW 8.1 mph - N/A   Clear
5:21 PM 42.8 °F 36.6 °F 14.0 °F 31% 29.96 in 10.0 mi WNW 11.5 mph 17.3 mph N/A   Clear
5:41 PM 42.8 °F 38.6 °F 14.0 °F 31% 29.97 in 10.0 mi WNW 6.9 mph 17.3 mph N/A   Clear
6:01 PM 41.0 °F 36.4 °F 14.0 °F 33% 29.97 in 10.0 mi WNW 6.9 mph - N/A   Clear
6:21 PM 41.0 °F 36.4 °F 14.0 °F 33% 29.98 in 10.0 mi WNW 6.9 mph - N/A   Clear
6:41 PM 39.2 °F 35.0 °F 14.0 °F 36% 29.99 in 10.0 mi WNW 5.8 mph - N/A   Clear
7:01 PM 39.2 °F 35.9 °F 12.2 °F 33% 30.00 in 10.0 mi WNW 4.6 mph - N/A   Clear
7:21 PM 37.4 °F 32.8 °F 12.2 °F 36% 30.01 in 10.0 mi WNW 5.8 mph - N/A   Clear
8:01 PM 37.4 °F 32.1 °F 12.2 °F 36% 30.02 in 10.0 mi WNW 6.9 mph - N/A   Clear
8:21 PM 37.4 °F 33.8 °F 12.2 °F 36% 30.02 in 10.0 mi NW 4.6 mph - N/A   Clear
8:41 PM 37.4 °F 32.8 °F 12.2 °F 36% 30.03 in 10.0 mi WNW 5.8 mph - N/A   Clear
9:01 PM 37.4 °F 33.8 °F 12.2 °F 36% 30.04 in 10.0 mi NW 4.6 mph - N/A   Clear
9:21 PM 37.4 °F 32.8 °F 12.2 °F 36% 30.04 in 10.0 mi WNW 5.8 mph - N/A   Clear
9:41 PM 35.6 °F 30.7 °F 12.2 °F 38% 30.04 in 10.0 mi WNW 5.8 mph - N/A   Clear
10:01 PM 35.6 °F 32.8 °F 12.2 °F 38% 30.05 in 10.0 mi WNW 3.5 mph - N/A   Clear
10:21 PM 35.6 °F 32.8 °F 12.2 °F 38% 30.04 in 10.0 mi WNW 3.5 mph - N/A   Clear
10:41 PM 35.6 °F - 14.0 °F 41% 30.04 in 10.0 mi Calm Calm - N/A   Clear
11:01 PM 33.8 °F - 14.0 °F 44% 30.04 in 10.0 mi Calm Calm - N/A   Clear
11:21 PM 32.0 °F - 14.0 °F 48% 30.04 in 10.0 mi Calm Calm - N/A   Clear
11:41 PM 32.0 °F - 15.8 °F 51% 30.05 in 10.0 mi Calm Calm - N/A   Clear